Change the Weather History Date:

Saturday, February 25, 2012

  Actual Average Record
Temperature  
Mean Temperature 26 °F -  
Max Temperature 32 °F 31 °F 45 °F (2002)
Min Temperature 19 °F 4 °F -14 °F (2003)
Degree Days  
Heating Degree Days 40    
Moisture  
Dew Point 22 °F    
Average Humidity 79    
Maximum Humidity 100    
Minimum Humidity 64    
Precipitation  
Precipitation 0.03 in - - ()
Sea Level Pressure  
Sea Level Pressure 29.29 in    
Wind  
Wind Speed 7 mph (WSW)    
Max Wind Speed 28 mph    
Max Gust Speed 37 mph    
Visibility 5 miles    
Events Snow    
Averages and records for this station are not official NWS values.
T = Trace of Precipitation, MM = Missing Value Source: NWS Daily Summary

Daily Weather History Graph

Daily Weather History Graph

Search for Another Location

Airport or City:

Trip Planner

Search our weather history database for the weather conditions in past years. The results will help you decide how hot, cold, wet, or windy it might be!

Date:

Astronomy

Feb. 25, 2012 Rise Set
Actual Time 6:31 AM EST 5:28 PM EST
Civil Twilight 6:01 AM EST 5:57 PM EST
Nautical Twilight 5:28 AM EST 6:31 PM EST
Astronomical Twilight 4:54 AM EST 7:04 PM EST
Moon 7:42 AM EST (2/25) 9:38 PM EST (2/25)
Length of Visible Light 11h 55m
Length of Day
10h 57m
Waxing Crescent, 13% of the Moon is Illuminated
Feb 25
Waxing Crescent
Feb 29
First Quarter
Mar 8
Full
Mar 14
Last Quarter
Mar 22
New

Hourly Weather History & Observations

Time (EST) Temp. Windchill Dew Point Humidity Pressure Visibility Wind Dir Wind Speed Gust Speed Precip Events Conditions
12:11 AM 32.0 °F - 30.2 °F 93% 29.16 in 1.8 mi Calm Calm - 0.00 in Snow Light Snow
12:29 AM 32.0 °F - 30.2 °F 93% 29.14 in 1.2 mi Calm Calm - 0.01 in Snow Light Snow
12:44 AM 32.0 °F - 30.2 °F 93% 29.13 in 3.0 mi Calm Calm - 0.02 in Snow Light Snow
12:52 AM 32.0 °F - 30.9 °F 96% 29.16 in 3.0 mi Calm Calm - 0.02 in Snow Light Snow
1:01 AM 32.0 °F - 30.2 °F 93% 29.11 in 2.0 mi Calm Calm - 0.00 in Snow Light Snow
1:12 AM 32.0 °F - 30.2 °F 93% 29.11 in 3.0 mi Calm Calm - 0.00 in Snow Light Snow
1:52 AM 30.9 °F - 30.0 °F 96% 29.12 in 10.0 mi Calm Calm - 0.00 in   Overcast
2:08 AM 30.2 °F - 30.2 °F 100% 29.08 in 10.0 mi Calm Calm - N/A   Overcast
2:27 AM 30.2 °F - 30.2 °F 100% 29.08 in 9.0 mi Calm Calm - N/A   Overcast
2:50 AM 32.0 °F 27.5 °F 30.2 °F 93% 29.07 in 5.0 mi SW 4.6 mph - 0.00 in Snow Light Snow
2:52 AM 32.0 °F 27.5 °F 30.0 °F 92% 29.11 in 7.0 mi SW 4.6 mph - 0.00 in Snow Light Snow
3:39 AM 32.0 °F 24.8 °F 28.4 °F 87% 29.07 in 8.0 mi SW 8.1 mph 17.3 mph 0.00 in Snow Light Snow
3:52 AM 32.0 °F 25.6 °F 28.9 °F 88% 29.10 in 6.0 mi SW 6.9 mph 16.1 mph 0.00 in Snow Light Snow
4:52 AM 30.9 °F 24.3 °F 27.0 °F 85% 29.11 in 10.0 mi SW 6.9 mph - 0.00 in   Overcast
5:52 AM 30.9 °F 24.3 °F 26.1 °F 82% 29.10 in 9.0 mi WSW 6.9 mph 16.1 mph 0.00 in Snow Light Snow
6:39 AM 30.2 °F 24.3 °F 26.6 °F 86% 29.09 in 10.0 mi SW 5.8 mph - N/A   Overcast
6:52 AM 30.0 °F 23.2 °F 26.1 °F 85% 29.13 in 8.0 mi SW 6.9 mph - 0.00 in Snow Light Snow
7:10 AM 30.2 °F 23.4 °F 26.6 °F 86% 29.10 in 2.0 mi SSW 6.9 mph - 0.00 in Snow Light Snow
7:19 AM 30.2 °F 24.3 °F 26.6 °F 86% 29.10 in 1.2 mi SW 5.8 mph - 0.00 in Snow Light Snow
7:26 AM 30.2 °F 24.3 °F 26.6 °F 86% 29.11 in 1.2 mi WSW 5.8 mph - 0.00 in Snow Light Snow
7:33 AM 30.2 °F 21.9 °F 26.6 °F 86% 29.11 in 3.0 mi WSW 9.2 mph - 0.00 in Snow Light Snow
7:41 AM 30.2 °F 21.9 °F 26.6 °F 86% 29.12 in 8.0 mi WSW 9.2 mph - 0.00 in   Overcast
7:52 AM 30.0 °F 21.7 °F 26.1 °F 85% 29.16 in 10.0 mi WSW 9.2 mph 16.1 mph 0.00 in   Overcast
8:52 AM 30.0 °F 23.2 °F 25.0 °F 82% 29.18 in 8.0 mi WSW 6.9 mph - 0.00 in Snow Light Snow
9:03 AM 30.2 °F 24.3 °F 26.6 °F 86% 29.15 in 1.8 mi WSW 5.8 mph - 0.00 in Snow Light Snow
9:13 AM 28.4 °F 20.4 °F 26.6 °F 93% 29.15 in 1.0 mi WSW 8.1 mph - 0.01 in Snow Light Snow
9:19 AM 30.2 °F 22.6 °F 26.6 °F 86% 29.15 in 2.0 mi West 8.1 mph - 0.01 in Snow Light Snow
9:27 AM 30.2 °F 24.3 °F 26.6 °F 86% 29.15 in 6.0 mi WSW 5.8 mph - 0.01 in Snow Light Snow
9:52 AM 30.0 °F 20.0 °F 23.0 °F 75% 29.18 in 10.0 mi West 12.7 mph - 0.01 in   Overcast
10:11 AM 30.2 °F 19.8 °F 23.0 °F 75% 29.15 in 10.0 mi West 13.8 mph 18.4 mph N/A   Overcast
10:28 AM 30.2 °F 20.8 °F 24.8 °F 80% 29.15 in 2.5 mi WSW 11.5 mph 20.7 mph 0.00 in Snow Light Snow
10:52 AM 30.9 °F 19.8 °F 21.9 °F 69% 29.19 in 10.0 mi WSW 16.1 mph 23.0 mph 0.00 in   Overcast
11:52 AM 30.0 °F 19.5 °F 21.0 °F 69% 29.23 in 8.0 mi WSW 13.8 mph 27.6 mph 0.00 in   Overcast
12:52 PM 28.0 °F 18.6 °F 19.0 °F 69% 29.26 in 6.0 mi West 10.4 mph 23.0 mph 0.00 in Snow Light Snow
1:22 PM 28.4 °F 17.5 °F 19.4 °F 69% 29.24 in 4.0 mi West 13.8 mph 24.2 mph 0.00 in Snow Light Snow
1:43 PM 28.4 °F 16.6 °F 19.4 °F 69% 29.25 in 1.5 mi West 16.1 mph 24.2 mph 0.00 in Snow Light Snow
1:52 PM 28.0 °F 17.0 °F 19.0 °F 69% 29.30 in 1.5 mi WSW 13.8 mph 26.5 mph 0.00 in Snow Light Snow
2:37 PM 28.4 °F 15.4 °F 17.6 °F 64% 29.28 in 2.0 mi West 19.6 mph 27.6 mph 0.00 in Snow Light Snow
2:42 PM 26.6 °F 13.4 °F 17.6 °F 69% 29.28 in 1.5 mi West 18.4 mph 28.8 mph 0.00 in Snow Light Snow
2:46 PM 26.6 °F 12.7 °F 17.6 °F 69% 29.29 in 1.0 mi West 20.7 mph 31.1 mph 0.00 in Snow Light Snow
2:52 PM 27.0 °F 13.9 °F 18.0 °F 69% 29.34 in 0.8 mi West 18.4 mph 31.1 mph 0.00 in Snow Light Snow
2:58 PM 26.6 °F 14.7 °F 17.6 °F 69% 29.30 in 1.2 mi West 15.0 mph 27.6 mph 0.00 in Snow Light Snow
3:22 PM 26.6 °F 15.2 °F 19.4 °F 74% 29.32 in 1.0 mi West 13.8 mph - 0.00 in Snow Light Snow
3:30 PM 26.6 °F 16.8 °F 19.4 °F 74% 29.32 in 2.0 mi West 10.4 mph 23.0 mph 0.00 in Snow Light Snow
3:49 PM 26.6 °F 14.7 °F 17.6 °F 69% 29.33 in 5.0 mi West 15.0 mph 25.3 mph 0.00 in Snow Light Snow
3:52 PM 27.0 °F 15.2 °F 17.1 °F 66% 29.38 in 9.0 mi West 15.0 mph 25.3 mph 0.00 in   Overcast
4:39 PM 24.8 °F 9.3 °F 15.8 °F 69% 29.38 in 1.8 mi West 24.2 mph 34.5 mph 0.00 in Snow Light Snow
4:48 PM 24.8 °F 8.4 °F 15.8 °F 69% 29.38 in 2.0 mi West 27.6 mph 36.8 mph 0.00 in Snow Light Snow
4:52 PM 25.0 °F 11.7 °F 15.1 °F 66% 29.43 in 2.5 mi West 17.3 mph 36.8 mph 0.00 in Snow Light Snow
4:59 PM 24.8 °F 11.5 °F 15.8 °F 69% 29.39 in 7.0 mi West 17.3 mph 29.9 mph 0.00 in   Overcast
5:52 PM 23.0 °F 10.6 °F 15.1 °F 72% 29.49 in 3.0 mi West 13.8 mph 25.3 mph 0.00 in Snow Light Snow
6:04 PM 21.2 °F 8.9 °F 14.0 °F 74% 29.47 in 4.0 mi West 12.7 mph 28.8 mph 0.00 in Snow Light Snow
6:52 PM 21.9 °F 9.8 °F 14.0 °F 72% 29.57 in 4.0 mi West 12.7 mph 16.1 mph 0.00 in Snow Light Snow
7:52 PM 21.0 °F 9.3 °F 12.9 °F 71% 29.61 in 7.0 mi West 11.5 mph 18.4 mph 0.00 in Snow Light Snow
8:05 PM 21.2 °F 10.1 °F 12.2 °F 68% 29.57 in 7.0 mi West 10.4 mph 23.0 mph 0.00 in Snow Light Snow
8:31 PM 21.2 °F 8.3 °F 14.0 °F 74% 29.58 in 6.0 mi West 13.8 mph 21.9 mph 0.00 in Snow Light Snow
8:52 PM 21.0 °F 8.6 °F 14.0 °F 74% 29.64 in 7.0 mi West 12.7 mph 21.9 mph 0.00 in Snow Light Snow
9:24 PM 21.2 °F 9.5 °F 14.0 °F 74% 29.63 in 4.0 mi West 11.5 mph 20.7 mph 0.00 in Snow Light Snow
9:52 PM 21.0 °F 11.4 °F 12.9 °F 71% 29.71 in 8.0 mi West 8.1 mph 21.9 mph 0.00 in Snow Light Snow
10:52 PM 19.9 °F 7.9 °F 10.9 °F 68% 29.76 in 10.0 mi West 11.5 mph 23.0 mph 0.00 in   Overcast
11:12 PM 19.4 °F 8.6 °F 12.2 °F 74% 29.72 in 8.0 mi West 9.2 mph 20.7 mph 0.00 in Snow Light Snow
11:29 PM 19.4 °F 6.0 °F 10.4 °F 68% 29.73 in 7.0 mi WNW 13.8 mph 20.7 mph 0.00 in Snow Light Snow
11:52 PM 19.9 °F 4.8 °F 10.9 °F 68% 29.80 in 8.0 mi West 18.4 mph 25.3 mph 0.00 in Snow Light Snow